Вернуться в каталог

STARLINK-5106

АктивенСвязьVLEO
NORAD 54823·PAYLOAD·🇺🇸 United States

Запущен Dec 28, 2022 с Cape Canaveral Space Force Station

Loading…

Ближайшие Пролёты (ближайшие 24 часа)

TLE

СвежийSource: CelesTrak SupGP

Эпоха: Sep 14, 2026, 21:42 UTC

1 54823C 22177D   26257.90465278 -.00032134  00000+0 -11642-2 0  2571
2 54823  42.9985 147.3095 0001574 243.2547 104.8120 15.27583932    16

Отслеживайте STARLINK-5106 в реальном времени с AllMySat

Download on the App Store